Date String (YYYY-MM-DD hh:mm:ss) UTC,Instrument flags,Ambient pressure (hPa),Sample flow (lpm),Bypass flow (lpm),Sample temperature (°C),Ambient temperature (°C),ASC tube jacket temperature (°C),LED temperature (°C),Box temperature (°C),Sample RH (%),Span deviation,Mass concentration (μg/m³),Mass concentration (μg/m³),Mass concentration (μg/m³)
DateTimeUTC,F1_M11,P_M11,Q1_M11,Q2_M11,T1_M11,T2_M11,T3_M11,T4_M11,T5_M11,U1_M11,ZSPAN_M11,X0_M11,X2_M11,X1_M11
2022-12-23 19:00:00,,0831.6,5.02,0.00,22.0,21.5,00.0,30.7,23.8,02.9,0001.2,0011.38,0005.98,0005.35
2022-12-23 19:01:00,,0831.6,5.02,0.00,22.0,21.4,00.0,30.7,23.8,02.9,0000.5,0011.56,0005.94,0005.33
2022-12-23 19:02:00,,0831.6,4.95,0.00,22.1,21.3,00.0,30.7,23.8,02.9,0000.0,0012.22,0005.96,0005.33
2022-12-23 19:03:00,,0831.6,5.02,0.00,22.1,21.3,00.0,30.7,23.8,02.9,-000.6,0012.17,0005.97,0005.33
2022-12-23 19:04:00,,0831.5,5.01,0.00,22.1,21.3,00.0,30.7,23.8,02.9,-000.9,0012.32,0006.01,0005.34
2022-12-23 19:05:00,,0831.5,4.97,0.00,22.1,21.3,00.0,30.8,23.9,02.9,-000.6,0012.41,0006.03,0005.36
2022-12-23 19:06:00,,0831.5,4.97,0.00,22.1,21.3,00.0,30.8,23.9,02.9,-000.6,0012.34,0006.01,0005.37
2022-12-23 19:07:00,,0831.5,5.01,0.00,22.1,21.2,00.0,30.8,23.9,03.0,-000.1,0012.50,0006.04,0005.40
2022-12-23 19:08:00,,0831.5,5.02,0.00,22.1,21.1,00.0,30.8,23.8,03.0,-000.2,0013.45,0006.09,0005.45
2022-12-23 19:09:00,,0831.5,4.97,0.00,22.1,21.4,00.0,30.8,23.9,03.0,-000.3,0012.88,0006.13,0005.52
2022-12-23 19:10:00,,0831.5,5.02,0.00,22.2,22.4,00.0,30.8,24.2,03.1,0000.5,0012.40,0006.15,0005.55
2022-12-23 19:11:00,,0831.4,4.99,0.00,22.4,23.0,00.0,30.8,24.4,03.0,0000.7,0012.17,0006.19,0005.59
2022-12-23 19:12:00,,0831.4,5.00,0.00,22.4,22.7,00.0,30.9,24.4,03.0,0001.4,0012.20,0006.30,0005.65
2022-12-23 19:13:00,,0831.4,5.04,0.00,22.5,22.4,00.0,31.0,24.4,03.0,0001.5,0011.73,0006.36,0005.71
2022-12-23 19:14:00,,0831.4,4.95,0.00,22.5,22.1,00.0,31.0,24.3,03.1,0002.0,0011.83,0006.42,0005.76
2022-12-23 19:15:00,,0831.4,5.03,0.00,22.5,21.8,00.0,31.1,24.3,03.1,0002.4,0011.80,0006.46,0005.82
2022-12-23 19:16:00,,0831.3,5.02,0.00,22.5,21.6,00.0,31.1,24.2,03.1,0002.3,0011.80,0006.50,0005.87
2022-12-23 19:17:00,,0831.4,5.01,0.00,22.5,21.5,00.0,31.1,24.2,03.1,0002.2,0011.94,0006.57,0005.93
2022-12-23 19:18:00,,0831.4,4.95,0.00,22.5,21.5,00.0,31.1,24.2,03.1,0002.0,0012.03,0006.62,0005.98
2022-12-23 19:19:00,,0831.4,5.01,0.00,22.4,21.4,00.0,31.1,24.2,03.1,0001.8,0012.75,0006.62,0006.01
2022-12-23 19:20:00,,0831.3,5.01,0.00,22.4,21.3,00.0,31.1,24.1,03.1,0002.0,0013.01,0006.63,0006.02
2022-12-23 19:21:00,,0831.3,5.01,0.00,22.4,21.3,00.0,31.1,24.1,03.1,0002.3,0012.88,0006.65,0006.05
2022-12-23 19:22:00,,0831.2,4.95,0.00,22.4,21.2,00.0,31.2,24.1,03.2,0002.2,0012.98,0006.65,0006.10
2022-12-23 19:23:00,,0831.2,5.02,0.00,22.4,21.1,00.0,31.2,24.1,03.2,0002.2,0013.37,0006.69,0006.14
2022-12-23 19:24:00,,0831.2,5.02,0.00,22.4,21.0,00.0,31.2,24.0,03.2,0001.8,0013.25,0006.69,0006.16
2022-12-23 19:25:00,,0831.2,5.00,0.00,22.4,21.0,00.0,31.2,24.0,03.2,0001.9,0013.30,0006.72,0006.18
2022-12-23 19:26:00,,0831.2,4.97,0.00,22.4,21.0,00.0,31.2,24.0,03.2,0001.6,0013.34,0006.74,0006.22
2022-12-23 19:27:00,,0831.2,5.00,0.00,22.4,21.1,00.0,31.2,24.1,03.2,0001.8,0013.42,0006.79,0006.27
2022-12-23 19:28:00,,0831.2,5.02,0.00,22.4,21.6,00.0,31.1,24.2,03.2,0001.4,0013.47,0006.82,0006.32
2022-12-23 19:29:00,,0831.2,4.96,0.00,22.5,22.6,00.0,31.1,24.4,03.2,0001.3,0013.91,0006.87,0006.35
2022-12-23 19:30:00,,0831.2,5.01,0.00,22.6,23.0,00.0,31.2,24.6,03.2,0001.6,0012.78,0006.91,0006.39
2022-12-23 19:31:00,,0831.2,5.02,0.00,22.7,22.6,00.0,31.2,24.6,03.2,0001.3,0012.34,0006.96,0006.43
2022-12-23 19:32:00,,0831.2,4.96,0.00,22.7,22.4,00.0,31.3,24.5,03.1,0001.7,0012.87,0006.97,0006.46
2022-12-23 19:33:00,,0831.2,5.01,0.00,22.7,22.2,00.0,31.3,24.5,03.2,0001.9,0012.75,0007.01,0006.48
2022-12-23 19:34:00,,0831.1,4.99,0.00,22.7,22.1,00.0,31.3,24.5,03.2,0001.9,0012.45,0007.06,0006.52
2022-12-23 19:35:00,,0831.1,4.97,0.00,22.7,22.0,00.0,31.3,24.5,03.2,0001.7,0012.40,0007.09,0006.58
2022-12-23 19:36:00,,0831.0,5.03,0.00,22.7,22.0,00.0,31.3,24.5,03.2,0002.0,0012.43,0007.13,0006.63
2022-12-23 19:37:00,,0831.1,5.02,0.00,22.7,21.9,00.0,31.4,24.5,03.3,0001.9,0012.69,0007.15,0006.66
2022-12-23 19:38:00,,0831.0,4.97,0.00,22.7,21.8,00.0,31.4,24.5,03.3,0001.9,0012.76,0007.17,0006.68
2022-12-23 19:39:00,,0831.0,4.98,0.00,22.8,21.8,00.0,31.4,24.5,03.2,0002.2,0012.75,0007.22,0006.71
2022-12-23 19:40:00,,0831.1,5.01,0.00,22.8,21.8,00.0,31.4,24.5,03.3,0002.1,0012.38,0007.24,0006.72
2022-12-23 19:41:00,,0831.2,5.02,0.00,22.8,21.7,00.0,31.4,24.5,03.2,0002.1,0012.53,0007.28,0006.74
2022-12-23 19:42:00,,0831.2,4.97,0.00,22.8,21.7,00.0,31.4,24.5,03.2,0002.3,0012.43,0007.31,0006.74
2022-12-23 19:43:00,,0831.1,4.99,0.00,22.8,21.7,00.0,31.4,24.5,03.2,0001.7,0012.24,0007.34,0006.75
2022-12-23 19:44:00,,0831.0,5.01,0.00,22.8,21.7,00.0,31.4,24.5,03.3,0000.8,0012.33,0007.35,0006.75
2022-12-23 19:45:00,,0830.9,5.04,0.00,22.8,21.7,00.0,31.4,24.5,03.3,0000.4,0012.25,0007.31,0006.73
2022-12-23 19:46:00,,0830.9,4.95,0.00,22.8,21.7,00.0,31.4,24.5,03.3,0000.3,0012.26,0007.28,0006.69
2022-12-23 19:47:00,,0830.9,5.00,0.00,22.8,21.7,00.0,31.5,24.5,03.2,-000.4,0012.15,0007.22,0006.64
2022-12-23 19:48:00,,0830.9,5.02,0.00,22.8,21.7,00.0,31.5,24.5,03.1,-000.4,0011.83,0007.19,0006.59
2022-12-23 19:49:00,,0830.9,4.99,0.00,22.8,21.7,00.0,31.5,24.5,03.2,-000.8,0011.73,0007.16,0006.55
2022-12-23 19:50:00,,0830.9,4.96,0.00,22.8,21.6,00.0,31.5,24.5,03.2,-001.1,0011.69,0007.10,0006.49
2022-12-23 19:51:00,,0830.9,5.04,0.00,22.8,21.6,00.0,31.5,24.5,03.2,-001.0,0011.53,0007.01,0006.43
2022-12-23 19:52:00,,0830.8,5.03,0.00,22.8,21.5,00.0,31.5,24.5,03.2,-000.9,0011.39,0006.94,0006.35
2022-12-23 19:53:00,,0830.7,4.95,0.00,22.8,21.5,00.0,31.5,24.5,03.2,-000.7,0011.71,0006.88,0006.29
2022-12-23 19:54:00,,0830.7,5.01,0.00,22.8,21.5,00.0,31.5,24.5,03.2,-000.3,0011.45,0006.78,0006.22
2022-12-23 19:55:00,,0830.7,5.02,0.00,22.7,21.5,00.0,31.5,24.5,03.1,0000.3,0011.51,0006.72,0006.14
2022-12-23 19:56:00,,0830.7,5.02,0.00,22.8,22.0,00.0,31.5,24.6,03.1,0001.2,0011.50,0006.64,0006.05
2022-12-23 19:57:00,,0830.8,4.95,0.00,22.9,22.8,00.0,31.5,24.9,03.1,0001.5,0011.60,0006.57,0005.98
2022-12-23 19:58:00,,0830.7,5.03,0.00,23.0,22.9,00.0,31.5,24.9,03.1,0002.0,0011.70,0006.50,0005.90
2022-12-23 19:59:00,,0830.7,5.03,0.00,23.0,22.6,00.0,31.6,24.9,03.1,0002.7,0011.70,0006.42,0005.83
